logo tempoitalia

Diretta Meteo Roosevelt Saint Eustatius, Antille Olandesilunedì 31 agosto ore 00:55

Mappa
Sereno 26 °C Sereno 24 Ore: T.min 24 T.max 30
Ponente Sud/Sud-Est Km/h 18.5 Punto di rugiada: 23 °C Umidità: 83% Visibilità: 0 Km
Il sole sorge alle: 05:57 Il sole tramonta alle: 18:26
31 Agosto 2026 00:55 tempo osservato: Sereno Sereno 26 83 1016 vento: Nord S/SE 18.5
30 Agosto 2026 23:55 tempo osservato: Sereno Sereno 25 88 1016 vento: Nord S 11.1
30 Agosto 2026 22:55 tempo osservato: Sereno Sereno 25 88 1017 vento: Nord N 9.3
30 Agosto 2026 21:55 tempo osservato: Sereno Sereno 26 88 1017 vento: Nord SE 18.5
30 Agosto 2026 20:55 tempo osservato: Sereno Sereno 26 94 1017 vento: Nord E/SE 25.9
30 Agosto 2026 19:55 tempo osservato: Sereno Sereno 26 94 1016 vento: Nord E 27.8
30 Agosto 2026 18:55 tempo osservato: Sereno Sereno 27 88 1015 vento: Nord E/SE 18.5
30 Agosto 2026 17:55 tempo osservato: Sereno Sereno 28 88 1014 vento: Nord E 13
30 Agosto 2026 16:55 tempo osservato: Sereno Sereno 29 83 1014 vento: Nord E/SE 18.5
30 Agosto 2026 15:55 tempo osservato: Sereno Sereno 29 79 1014 vento: Nord E 22.2
30 Agosto 2026 14:55 tempo osservato: Sereno Sereno 30 74 1013 vento: Nord E/SE 16.7
30 Agosto 2026 13:55 tempo osservato: Sereno Sereno 30 79 1014 vento: Nord E 20.3
30 Agosto 2026 12:55 tempo osservato: Sereno Sereno 30 70 1014 vento: Nord S/SE 14.8
30 Agosto 2026 11:55 tempo osservato: Sereno Sereno 30 74 1016 vento: Nord E/SE 18.5
30 Agosto 2026 10:55 tempo osservato: Sereno Sereno 29 79 1015 vento: Nord S/SE 18.5
30 Agosto 2026 09:55 tempo osservato: Sereno Sereno 29 74 1014 vento: Nord N 14.8
30 Agosto 2026 08:55 tempo osservato: Sereno Sereno 27 78 1013 vento: Nord E/SE 35.2
30 Agosto 2026 07:55 tempo osservato: Sereno Sereno 27 88 1013 vento: Nord S/SE 33.3
30 Agosto 2026 06:55 tempo osservato: Sereno Sereno 26 100 1012 vento: Nord S/SO 14.8
30 Agosto 2026 05:55 tempo osservato: Sereno Sereno 24 94 1013 vento: Nord O/SO 14.8
30 Agosto 2026 04:55 tempo osservato: Sereno Sereno 26 100 1010 vento: Nord SO 20.3
30 Agosto 2026 03:55 tempo osservato: Sereno Sereno 26 100 1009 vento: Nord S 18.5
30 Agosto 2026 02:55 tempo osservato: Sereno Sereno 26 100 1011 vento: Nord NE 7.4
30 Agosto 2026 01:55 tempo osservato: Sereno Sereno 27 94 1011 vento: Nord E/NE 24